Zurück zum Katalog

BREEZE-M DEB

AktivHEO
NORAD 39330·DEBRIS·🇷🇺 Russia

Gestartet Mar 14, 2008 von Baikonur Cosmodrome

Loading…

Nächste Überflüge (nächste 24 Stunden)

TLE

AktuellSource: Space-Track

Epoche: Sep 5, 2026, 14:51 UTC

1 39330U 08011DH  26248.61886167 -.00001026  00000-0 -15417-1 0  9993
2 39330  49.9478  57.8196 6502853  98.7791 342.3804  3.01139819142058

Verfolge BREEZE-M DEB in Echtzeit mit AllMySat

Download on the App Store